Location: Newark
(55.7083°N, 13.1992°E)
Time: 11:16:58
(UTC+00:00)

ISS - Pass Details

Date: 23 January 2020
Orbit: 415 x 422 km, 51.6° (Epoch: 23 February)

Event Time Altitude Azimuth Distance (km) Brightness Sun altitude
Rises 18:08:37 0° 226° (SW) 2,372 0.8 -22.9°
Reaches altitude 10° 18:10:57 10° 212° (SSW) 1,508 -0.5 -23.2°
Enters shadow 18:12:06 17° 198° (SSW) 1,159 -1.4 -23.4°
